Location: Mount Cross
(36.6390°N, 79.4878°W)
Time: 09:26:36
(UTC+00:00)

Vanguard 1 Rocket - Pass Details

Date: 07 April 2023
Orbit: 654 x 4221 km, 34.3° (Epoch: 01 June)

Event Time Altitude Azimuth Distance (km) Brightness Sun altitude
Rises 20:35:01 0° 182° (S) 6,350 12.0 36.7°
Reaches altitude 10° 20:40:43 10° 166° (SSE) 5,926 11.7 35.6°
Maximum altitude 20:53:30 21° 126° (SE) 6,014 11.4 33.2°
Drops below altitude 10° 21:09:00 10° 88° (E) 7,418 11.6 30.2°
Sets 21:17:23 0° 75° (ENE) 8,411 11.8 28.6°
